International Skating Union - Official Site

ISU World Cup Speed Skating Finals 2017-2018
March 17-18, 2018

Draw | Lap Times | Index | World Cup

Referee: Daniel  CABELDUC  (SWE)
Starter: Roman  DANILOV  (RUS)
StartTime: EndTime: Air Temp: Ice Temp: Humidity:
15:45 15:57 13.5 ℃ -6 ℃ 29%
Result Team Pursuit Ladies
Rankings as of Mar 18 2018 7:06PM
Rank: No.: Team: Nation: Time: Behind: Points:
Total 3
1 12 Japan (116) Ayaka Kikuchi (118) Ayano Sato (119) Miho Takagi (117) Fuyo Matsuoka JPN JPN 3:00.180.5 - 18.68 - (18.6)
1.0 - 33.15 - (14.4)
1.5 - 47.67 - (14.5)
2.0 - 1:02.30 - (14.6)
2.5 - 1:16.88 - (14.5)
3.0 - 1:31.59 - (14.7)
3.5 - 1:46.47 - (14.8)
4.0 - 2:01.07 - (14.5)
4.5 - 2:15.63 - (14.5)
5.0 - 2:30.37 - (14.7)
5.5 - 2:45.19 - (14.8)
6.0 - 3:00.18 - (14.9)
150
2 15 Netherlands (121) Antoinette de Jong (124) Marrit Leenstra (126) Lotte van Beek (127) Melissa Wijfje NED NED 3:05.210.5 - 19.24 - (19.2)
1.0 - 33.61 - (14.3)
1.5 - 48.11 - (14.5)
2.0 - 1:02.80 - (14.6)
2.5 - 1:17.73 - (14.9)
3.0 - 1:32.53 - (14.8)
3.5 - 1:47.65 - (15.1)
4.0 - 2:02.55 - (14.9)
4.5 - 2:17.84 - (15.2)
5.0 - 2:33.55 - (15.7)
5.5 - 2:49.30 - (15.7)
6.0 - 3:05.21 - (15.9)
5.03 120
3 10 Germany (110) Gabriele Hirschbichler (111) Claudia Pechstein (112) Michelle Uhrig GER GER 3:08.560.5 - 19.50 - (19.5)
1.0 - 34.03 - (14.5)
1.5 - 48.59 - (14.5)
2.0 - 1:03.41 - (14.8)
2.5 - 1:18.83 - (15.4)
3.0 - 1:34.25 - (15.4)
3.5 - 1:49.70 - (15.4)
4.0 - 2:05.40 - (15.7)
4.5 - 2:20.79 - (15.3)
5.0 - 2:36.55 - (15.7)
5.5 - 2:52.58 - (16.0)
6.0 - 3:08.56 - (16.0)
8.38 104